TimePST,TemperatureF,Dew PointF,Humidity,Sea Level PressureIn,VisibilityMPH,Wind Direction,Wind SpeedMPH,Gust SpeedMPH,PrecipitationIn,Events,Conditions,WindDirDegrees,DateUTC
12:15 AM,37.4,37.4,100,30.07,0.5,NE,3.5,-,N/A,Fog,Fog,50,2012-12-08 08:15:00
12:35 AM,37.4,37.4,100,30.07,2.5,NNE,3.5,-,N/A,,Overcast,20,2012-12-08 08:35:00
12:55 AM,37.4,37.4,100,30.07,0.5,Calm,Calm,-,N/A,Fog,Fog,0,2012-12-08 08:55:00
1:15 AM,35.6,35.6,100,30.06,0.2,ESE,4.6,-,N/A,Fog,Fog,120,2012-12-08 09:15:00
1:35 AM,35.6,35.6,100,30.05,0.2,SE,6.9,-,N/A,Rain,Light Rain,130,2012-12-08 09:35:00
1:55 AM,35.6,35.6,100,30.05,0.2,SE,9.2,-,N/A,Rain,Light Rain,130,2012-12-08 09:55:00
2:15 AM,32.0,32.0,100,30.05,0.2,SE,6.9,-,N/A,Rain,Light Rain,130,2012-12-08 10:15:00
2:35 AM,32.0,32.0,100,30.05,0.2,ESE,3.5,-,N/A,Rain,Light Rain,120,2012-12-08 10:35:00
2:55 AM,32.0,32.0,100,30.04,1.0,Calm,Calm,-,N/A,,Overcast,0,2012-12-08 10:55:00
3:15 AM,28.4,28.4,100,30.04,0.8,SE,3.5,-,N/A,,Mist,130,2012-12-08 11:15:00
3:35 AM,28.4,28.4,100,30.04,1.5,ESE,3.5,-,N/A,,Clear,110,2012-12-08 11:35:00
3:55 AM,28.4,28.4,100,30.04,5.0,East,3.5,-,N/A,,Clear,100,2012-12-08 11:55:00
4:15 AM,28.4,28.4,100,30.04,7.0,Calm,Calm,-,N/A,,Clear,0,2012-12-08 12:15:00
4:35 AM,26.6,26.6,100,30.03,4.0,Calm,Calm,-,N/A,,Clear,0,2012-12-08 12:35:00
4:55 AM,26.6,26.6,100,30.03,8.0,ESE,4.6,-,N/A,,Clear,120,2012-12-08 12:55:00
5:15 AM,26.6,26.6,100,30.03,10.0,Calm,Calm,-,N/A,,Clear,0,2012-12-08 13:15:00
5:35 AM,26.6,26.6,100,30.04,10.0,Calm,Calm,-,N/A,,Clear,0,2012-12-08 13:35:00
5:55 AM,26.6,26.6,100,30.04,10.0,SW,3.5,-,N/A,,Clear,220,2012-12-08 13:55:00
6:15 AM,28.4,28.4,100,30.05,10.0,Calm,Calm,-,N/A,,Clear,0,2012-12-08 14:15:00
6:35 AM,28.4,28.4,100,30.05,10.0,Calm,Calm,-,N/A,,Clear,0,2012-12-08 14:35:00
6:55 AM,26.6,26.6,100,30.05,8.0,Calm,Calm,-,N/A,,Clear,0,2012-12-08 14:55:00
7:15 AM,26.6,24.8,93,30.05,8.0,ESE,4.6,-,N/A,,Clear,120,2012-12-08 15:15:00
7:35 AM,30.2,28.4,93,30.05,7.0,Calm,Calm,-,N/A,,Clear,0,2012-12-08 15:35:00
7:55 AM,32.0,32.0,100,30.05,6.0,Calm,Calm,-,N/A,,Clear,0,2012-12-08 15:55:00
8:15 AM,35.6,33.8,93,30.05,6.0,Calm,Calm,-,N/A,,Clear,0,2012-12-08 16:15:00
8:35 AM,37.4,35.6,93,30.05,10.0,ESE,3.5,-,N/A,,Clear,120,2012-12-08 16:35:00
8:55 AM,39.2,33.8,81,30.06,10.0,Calm,Calm,-,N/A,,Clear,0,2012-12-08 16:55:00
9:15 AM,41.0,35.6,81,30.06,10.0,WSW,3.5,-,N/A,,Clear,250,2012-12-08 17:15:00
9:35 AM,46.4,35.6,66,30.06,10.0,WNW,3.5,-,N/A,,Clear,290,2012-12-08 17:35:00
9:55 AM,48.2,33.8,58,30.06,9.0,West,4.6,-,N/A,,Clear,270,2012-12-08 17:55:00
10:15 AM,50.0,33.8,54,30.06,10.0,NNW,5.8,-,N/A,,Clear,330,2012-12-08 18:15:00
10:35 AM,53.6,32.0,44,30.05,10.0,NW,4.6,-,N/A,,Clear,310,2012-12-08 18:35:00
10:55 AM,55.4,26.6,33,30.05,10.0,WNW,8.1,-,N/A,,Clear,300,2012-12-08 18:55:00
11:15 AM,57.2,24.8,29,30.04,10.0,WNW,6.9,-,N/A,,Clear,300,2012-12-08 19:15:00
11:35 AM,57.2,26.6,31,30.03,10.0,NW,8.1,-,N/A,,Clear,310,2012-12-08 19:35:00
11:55 AM,57.2,23.0,27,30.02,10.0,NW,8.1,-,N/A,,Clear,310,2012-12-08 19:55:00
12:15 PM,59.0,17.6,20,30.02,10.0,NW,6.9,-,N/A,,Clear,310,2012-12-08 20:15:00
12:35 PM,59.0,26.6,29,30.01,10.0,NW,11.5,-,N/A,,Clear,320,2012-12-08 20:35:00
12:55 PM,57.2,33.8,41,30.01,10.0,NW,15.0,-,N/A,,Clear,310,2012-12-08 20:55:00
1:15 PM,55.4,33.8,44,30.00,9.0,NW,13.8,-,N/A,,Clear,320,2012-12-08 21:15:00
1:35 PM,55.4,33.8,44,30.00,10.0,NW,11.5,-,N/A,,Clear,320,2012-12-08 21:35:00
1:55 PM,53.6,37.4,54,29.99,10.0,NW,15.0,-,N/A,,Clear,310,2012-12-08 21:55:00
2:15 PM,51.8,39.2,62,29.99,9.0,NW,13.8,-,N/A,,Clear,320,2012-12-08 22:15:00
2:35 PM,51.8,39.2,62,29.99,8.0,NW,13.8,-,N/A,,Clear,320,2012-12-08 22:35:00
2:55 PM,50.0,39.2,66,30.00,8.0,NW,16.1,-,N/A,,Clear,320,2012-12-08 22:55:00
3:15 PM,48.2,37.4,66,30.00,8.0,NW,18.4,-,N/A,,Clear,320,2012-12-08 23:15:00
3:35 PM,46.4,39.2,76,30.01,7.0,NW,17.3,-,N/A,,Clear,320,2012-12-08 23:35:00
3:55 PM,-9999,-9999,N/A,30.00,-9999.0,NW,15.0,-,N/A,,Unknown,320,2012-12-08 23:55:00
4:15 PM,44.6,39.2,81,30.01,3.0,NW,16.1,-,N/A,,Clear,310,2012-12-09 00:15:00
4:55 PM,41.0,39.2,93,30.01,3.0,NNW,10.4,-,N/A,,Partly Cloudy,330,2012-12-09 00:55:00
5:15 PM,41.0,39.2,93,30.02,3.0,NW,9.2,-,N/A,,Mostly Cloudy,310,2012-12-09 01:15:00
5:35 PM,41.0,39.2,93,30.02,3.0,NW,8.1,-,N/A,,Mostly Cloudy,310,2012-12-09 01:35:00
5:55 PM,41.0,39.2,93,30.02,3.0,NW,10.4,-,N/A,,Scattered Clouds,320,2012-12-09 01:55:00
6:15 PM,39.2,39.2,100,30.02,2.0,NNW,10.4,-,N/A,,Mostly Cloudy,330,2012-12-09 02:15:00
6:35 PM,39.2,39.2,100,30.02,3.0,NW,9.2,-,N/A,,Scattered Clouds,310,2012-12-09 02:35:00
6:55 PM,39.2,39.2,100,30.02,2.5,NW,10.4,-,N/A,,Partly Cloudy,310,2012-12-09 02:55:00
7:15 PM,39.2,39.2,100,30.03,2.0,NW,8.1,-,N/A,,Overcast,320,2012-12-09 03:15:00
7:55 PM,39.2,39.2,100,30.04,2.5,North,3.5,-,N/A,,Mostly Cloudy,350,2012-12-09 03:55:00
8:35 PM,39.2,39.2,100,30.04,2.0,NW,9.2,-,N/A,,Overcast,320,2012-12-09 04:35:00
8:55 PM,39.2,39.2,100,30.05,2.0,Calm,Calm,-,N/A,,Overcast,0,2012-12-09 04:55:00
9:15 PM,39.2,39.2,100,30.05,1.0,NW,8.1,-,N/A,,Overcast,320,2012-12-09 05:15:00
9:35 PM,39.2,39.2,100,30.05,1.2,NW,8.1,-,N/A,,Overcast,320,2012-12-09 05:35:00
9:55 PM,39.2,39.2,100,30.06,1.2,WNW,4.6,-,N/A,,Overcast,290,2012-12-09 05:55:00
10:15 PM,39.2,39.2,100,30.07,1.5,Calm,Calm,-,N/A,,Overcast,0,2012-12-09 06:15:00
10:35 PM,37.4,37.4,100,30.07,1.8,East,4.6,-,N/A,,Overcast,90,2012-12-09 06:35:00
11:15 PM,32.0,32.0,100,30.07,5.0,Calm,Calm,-,N/A,,Overcast,0,2012-12-09 07:15:00
11:35 PM,35.6,35.6,100,30.07,2.5,Calm,Calm,-,N/A,,Overcast,0,2012-12-09 07:35:00
11:55 PM,37.4,37.4,100,30.07,0.5,Calm,Calm,-,N/A,Fog,Fog,0,2012-12-09 07:55:00